Volver al catálogo

YAOGAN-50 02

ActivoMilitarLEO
NORAD 68196·PAYLOAD·🇨🇳 China

Lanzado Mar 15, 2026 desde Taiyuan Satellite Launch Center

Loading…

Próximos Pases (próximas 24 horas)

TLE

ActualizadoSource: Space-Track

Época: Sep 14, 2026, 21:17 UTC

1 68196U 26051A   26257.88711172  .00000304  00000-0  10607-3 0  9995
2 68196 141.9928  40.8053 0000804 293.7261  66.3374 13.83256030 25421

Sigue YAOGAN-50 02 en tiempo real con AllMySat

Download on the App Store